Regional Weather Roundup
Issued by NWS Newport/Morehead, NC

Current Version | Previous Version | Text Only | Print | Product List | Glossary Off
Versions: 1 2 3 4 5 6 7 8 9 10 11 12 13 14 15 16 17 18 19 20 21 22 23 24 25 26 27 28 29 30 31 32 33 34 35 36 37 38 39 40 41 42 43 44 45 46 47 48 49 50
000 ASUS42 KMHX 311213 RWRMHX WEATHER ROUNDUP FOR EASTERN NORTH CAROLINA NATIONAL WEATHER SERVICE NEWPORT/MOREHEAD CITY NC 800 AM EDT WED AUG 31 2016 NOTE: "FAIR" INDICATES FEW OR NO CLOUDS BELOW 12,000 FEET WITH NO SIGNIFICANT WEATHER AND/OR OBSTRUCTIONS TO VISIBILITY NCZ015>017-031-032-045>047-102-103-311300- NORTH COAST CITY SKY/WX TMP DP RH WIND PRES REMARKS EDENTON FOG 75 75 100 N5 30.01S VSB 1/4 ELIZABETH CITY CLOUDY 76 75 97 NW5 30.00S FOG KITTY HAWK SUNNY 80 79 96 CALM 29.97S MANTEO PTSUNNY 79 77 95 NE6 29.98S $$ NCZ045>047-081-094-103-104-311300- CENTRAL COAST CITY SKY/WX TMP DP RH WIND PRES REMARKS FRISCO MOSUNNY 82 75 79 VRB5 29.97S $$ NCZ095-097-098-100-101-311300- SOUTHERN COAST CITY SKY/WX TMP DP RH WIND PRES REMARKS BEAUFORT CLOUDY 77 77 100 N5 29.99S CEDAR ISLAND NOT AVBL JACKSONVILLE FOG 74 73 97 N5 29.99S VSB 1 PINEY ISLAND PTSUNNY N/A N/A N/A N9 29.98S WILMINGTON CLOUDY 75 74 96 NE6 30.00R FOG $$ NCZ011>013-027>030-043-044-078>080-089-090>093-098-311300- COASTAL PLAIN CITY SKY/WX TMP DP RH WIND PRES REMARKS AHOSKIE DRZL/FOG 72 71 98 N3 30.02S VSB<1/4 CLINTON CLOUDY 74 74 100 CALM 30.01S ELIZABETHTOWN CLOUDY 75 75 100 CALM 30.01R GOLDSBORO FOG 74 74 100 NE3 30.00R VSB 3/4 GREENVILLE HVY RAIN 72 72 100 CALM 30.03S VSB 1/4 HAVELOCK CLOUDY 76 74 93 N7 30.00S FOG KENANSVILLE FOG 73 73 100 NE3 30.00F VSB 1/4 KINSTON FOG 73 73 100 CALM 30.01S VSB 1/8 NEW BERN CLOUDY 76 74 93 N5 30.01S FOG RICHLANDS FOG 74 74 100 N5 30.00F VSB 1/4 ROCKY MOUNT FOG 73 73 100 NE3 30.02S VSB 3/4 WASHINGTON FOG 73 73 99 N5 30.01S VSB<1/4 WHITEVILLE PTSUNNY 75 74 95 CALM 30.00S $$ AMZ130-135-150-152-154-156-158-170-250-252-270-ANZ085-086-088-633-658-670-311300- MARINE OBSERVATIONS STATION/POSITION TIME TEMP WIND PRES WAVE SWELL AIR SEA DIR/SP/G HT/PER HT/PER (UTC) (F) (DEG/KT/KT) (MB) (FT/S) (FT/S) CHESAPEAKE LIGHT NOT AVBL 64 E VA BEACH 1150 80 80 40/ 12/ 14 1014.4 4/10 3/10 DUCK 1100 79 80 20/ 9/ 10 1014.8 2 E DUCK 1111 78 N/A 3/11 2/11 OREGON INLET 1100 78 80 360/ 5/ 6 1014.8 13E OREGON INLT 1200 79 N/A 4/11 5/11 HATTERAS CG 1100 80 82 340/ 11/ 12 1014.6 DIAMOND BUOY 1150 81 85 350/ 12/ 14 1014.4 4/11 5/11 CAPE LOOKOUT 1200 78 350/ 10/ 12 1015.0 BEAUFORT LAB 1100 77 80 350/ 7/ 9 1014.9 30 SE NEW RVR IN 1108 81 84 10/ 8/ 10 1015.2 30 SE NEW RVR IN 1125 84 N/A 3/11 2/11 27 SE WRIGHTSVLE 1108 81 84 360/ 8/ 12 1015.4 5 SE WRIGHTSVLE 1108 79 83 30/ 6/ 8 1016.3 225 S CAPE HAT 1150 83 83 240/ 6/ 8 1016.2 4/10 3/10 41 SE CHARLESTON 1150 79 84 150/ 10/ 12 1014.6 4/10 3/10 $$

USA.gov is the U.S. government's official web portal to all federal, state and local government web resources and services.